Regional Weather Roundup
Issued by NWS

Home | Current Version | Previous Version | Graphics & Text | Print | Product List | Glossary On
Versions: 1 2 3 4 5 6 7 8 9 10 11 12 13 14 15 16 17 18 19 20 21 22 23 24 25 26 27 28 29 30 31 32 33 34 35 36 37 38 39 40 41 42 43 44 45 46 47 48 49 50
000
ASUS45 KABQ 280610
RWRNM
NEW MEXICO REGIONAL WEATHER ROUNDUP
NATIONAL WEATHER SERVICE ALBUQUERQUE NM
1200 AM MDT SUN MAY 28 2017

NOTE: "FAIR" MEANS FEW OR NO CLOUDS BELOW 12,000 FEET AGL WITH NO
       SIGNIFICANT WEATHER OR OBSTRUCTIONS TO VISION.

      THIS PRODUCT IS RELEASED AS TWO VERSIONS.  ONE VERSION NEAR
      THE TOP OF THE HOUR CONTAINING PRELIMINARY DATA FROM ALBUQUERQUE
      AND OTHER STATIONS.  A FINAL VERSION WITH ADDITIONAL DATA IS
      ISSUED ABOUT 10 MINUTES AFTER THE HOUR.

NMZ501-503-504-510>518-280700-
NORTHWEST PLATEAU/NORTHCENTRAL MOUNTAINS

CITY           SKY/WX    TMP DP  RH WIND       PRES   REMARKS
FARMINGTON     FAIR      52  16  24 NE9       30.15R
6HR MIN TEMP:  52; 6HR MAX TEMP:  75;

LOS ALAMOS     FAIR      60  18  19 NW12      30.24R
SANTA FE       FAIR      52  22  30 N8        30.17R
6HR MIN TEMP:  52; 6HR MAX TEMP:  77;

TAOS           FAIR      52  21  30 N16       30.24R
ANGEL FIRE     FAIR      39  29  66 CALM      30.31R

$$
NMZ402-403-502-505>509-280700-
WESTCENTRAL MOUNTAINS/SOUTHWEST MOUNTAINS

CITY           SKY/WX    TMP DP  RH WIND       PRES   REMARKS
GALLUP         FAIR      53  25  33 CALM      30.22R
6HR MIN TEMP:  52; 6HR MAX TEMP:  74;

GRANTS         FAIR      49  19  30 N5        30.24R
SILVER CITY    FAIR      56  12  17 NW10      30.13S

$$
NMZ407-409-411-412-280700-
SOUTHERN DESERTS

CITY           SKY/WX    TMP DP  RH WIND       PRES   REMARKS
DEMING         FAIR      61  12  14 SE5       30.06R
6HR MIN TEMP:  61; 6HR MAX TEMP:  89;

LAS CRUCES     FAIR      63   9  12 NW9       30.05S
HOLLOMAN AFB   FAIR      66   6   9 NE7       30.06R
ALAMOGORDO     FAIR      68   9  10 NE7       30.04R
T OR C         FAIR      66   3   8 N5        30.08R
6HR MIN TEMP:  66; 6HR MAX TEMP:  89; 6HR PCP: TRACE;


$$
NMZ519>523-280700-
CENTRAL VALLEYS/CENTRAL HIGHLANDS

CITY           SKY/WX    TMP DP  RH WIND       PRES   REMARKS
ALBUQUERQUE    FAIR      69  22  16 N9        30.13R
6HR MIN TEMP:  69; 6HR MAX TEMP:  83;

DOUBLE EAGLE   FAIR      61  24  24 NW12      30.16S
MORIARTY ARPT  FAIR      49  22  34 CALM      30.20R
6HR MIN TEMP:  49; 6HR MAX TEMP:  81;

CLINES CORNERS FAIR      51  38  60 NE16      30.24R
6HR MIN TEMP:  51; 6HR MAX TEMP:  74;

BELEN          FAIR      61  18  18 NW7       30.12S
6HR MIN TEMP:  61; 6HR MAX TEMP:  85;

SOCORRO        FAIR      67  13  12 NE10      30.09R
6HR MIN TEMP:  67; 6HR MAX TEMP:  87;


$$
NMZ524>526-539-540-280700-
SOUTHCENTRAL MOUNTAINS

CITY           SKY/WX    TMP DP  RH WIND       PRES   REMARKS
RUIDOSO        FAIR      63   5  10 W10       30.22S

$$
NMZ527>531-280700-
NORTHEAST HIGHLANDS/NORTHEAST PLAINS

CITY           SKY/WX    TMP DP  RH WIND       PRES   REMARKS
LAS VEGAS      FAIR      44  40  85 NE14      30.26R
6HR MIN TEMP:  44; 6HR MAX TEMP:  76;

RATON          FAIR      46  34  62 N17       30.26R
6HR MIN TEMP:  46; 6HR MAX TEMP:  68;

CLAYTON        FAIR      49  42  77 NW17G24   30.20R
6HR MIN TEMP:  49; 6HR MAX TEMP:  71;


$$
NMZ532>537-280700-
EASTCENTRAL PLAINS

CITY           SKY/WX    TMP DP  RH WIND       PRES   REMARKS
SANTA ROSA     FAIR      55  42  61 N16       30.14R
TUCUMCARI      FAIR      58  45  62 NE10      30.14R
6HR MIN TEMP:  58; 6HR MAX TEMP:  90;

CANNON AFB     FAIR      56  47  73 NE28G39   30.10R
6HR MIN TEMP:  56; 6HR MAX TEMP:  90;

CLOVIS AIRPORT FAIR      55  43  62 NE26G43   30.11R

$$
NMZ028-029-538-280700-
SOUTHEAST PLAINS

CITY           SKY/WX    TMP DP  RH WIND       PRES   REMARKS
ROSWELL        FAIR      71   7   8 W13       29.95R
6HR MIN TEMP:  71; 6HR MAX TEMP:  95;

ARTESIA        FAIR      68  10  10 W13       29.95S
CARLSBAD       FAIR      71  17  12 SW9       29.92S
6HR MIN TEMP:  68; 6HR MAX TEMP:  95;

HOBBS          FAIR      66   7   9 W13       29.97S


$$




USA.gov is the U.S. government's official web portal to all federal, state and local government web resources and services.